This demonstration page uses our WeatherBlox Daily Observations layout. Learn more.

Left ArrowRight Arrow

Hourly Observations for May 5, 2018

Temp ( °F °C ) Dew Point ( °F °C ) Humidity (%) Winds ( mph kmh ) Pressure ( in mb ) Visibility ( mi km ) Precip ( " mm )
12:53 am 00:53 Clear 67 19.4 55 12.8 66 66 NNW 3 6 30.05 1018 10 16 0.00 0.00
1:53 am 01:53 Clear 62 16.7 55 12.8 78 78 Calm 30.04 1017 10 16 0.00 0.00
2:53 am 02:53 Clear 61 16.1 55 12.8 81 81 NNW 5 7 30.04 1017 10 16 0.00 0.00
3:53 am 03:53 Clear 60 15.6 54 12.2 80 80 N 3 6 30.02 1017 10 16 0.00 0.00
4:53 am 04:53 Clear 61 16.1 54 12.2 78 78 Calm 30.01 1016 10 16 0.00 0.00
5:53 am 05:53 Clear 60 15.6 54 12.2 80 80 Calm 30.01 1016 10 16 0.00 0.00
6:53 am 06:53 Sunny 59 15 55 12.8 87 87 Calm 30.03 1017 10 16 0.00 0.00
7:53 am 07:53 Sunny 60 15.6 55 12.8 84 84 Calm 30.04 1017 10 16 0.00 0.00
8:53 am 08:53 Sunny 65 18.3 54 12.2 68 68 Calm 30.04 1017 10 16 0.00 0.00
9:53 am 09:53 Sunny 70 21.1 55 12.8 59 59 N 7 11 30.03 1017 10 16 0.00 0.00
10:53 am 10:53 Sunny 72 22.2 54 12.2 53 53 N 3 6 30.02 1017 10 16 0.00 0.00
11:53 am 11:53 Sunny 75 23.9 53 11.7 46 46 W 5 7 30.01 1016 10 16 0.00 0.00
12:53 pm 12:53 Sunny 79 26.1 53 11.7 41 41 E 3 6 29.98 1015 10 16 0.00 0.00
1:53 pm 13:53 Sunny 80 26.7 48 8.9 33 33 VRB 3 6 29.96 1014 10 16 0.00 0.00
2:53 pm 14:53 Sunny 81 27.2 50 10 34 34 VRB 3 6 29.94 1014 10 16 0.00 0.00
3:53 pm 15:53 Sunny 82 27.8 52 11.1 35 35 WNW 5 7 29.92 1013 10 16 0.00 0.00
4:53 pm 16:53 Sunny 84 28.9 43 6.1 24 24 S 8 13 29.89 1012 10 16 0.00 0.00
5:53 pm 17:53 Sunny 83 28.3 43 6.1 24 24 Calm 29.88 1012 10 16 0.00 0.00
6:53 pm 18:53 Sunny 79 26.1 51 10.6 38 38 Calm 29.86 1011 10 16 0.00 0.00
7:53 pm 19:53 Sunny 76 24.4 55 12.8 48 48 Calm 29.86 1011 10 16 0.00 0.00
8:53 pm 20:53 Clear 72 22.2 57 13.9 59 59 Calm 29.87 1011 10 16 0.00 0.00
9:53 pm 21:53 Clear 68 20 58 14.4 70 70 Calm 29.88 1012 10 16 0.00 0.00
10:53 pm 22:53 Clear 65 18.3 56 13.3 73 73 Calm 29.89 1012 10 16 0.00 0.00
11:53 pm 23:53 Clear 61 16.1 56 13.3 84 84 Calm 29.89 1012 10 16 0.00 0.00

Powered by AerisWeather